Year,Month,Day,Hour,Minute,Value (Times are PST for temperature in C)
2017,07,17,00,00,15.30
2017,07,17,00,01,15.30
2017,07,17,00,02,15.30
2017,07,17,00,03,15.30
2017,07,17,00,04,15.30
2017,07,17,00,05,15.40
2017,07,17,00,06,15.40
2017,07,17,00,07,15.40
2017,07,17,00,08,15.40
2017,07,17,00,09,15.40
2017,07,17,00,10,15.50
2017,07,17,00,11,15.60
2017,07,17,00,12,15.60
2017,07,17,00,13,15.60
2017,07,17,00,14,15.60
2017,07,17,00,15,15.60
2017,07,17,00,16,15.60
2017,07,17,00,17,15.60
2017,07,17,00,18,15.60
2017,07,17,00,19,15.60
2017,07,17,00,20,15.60
2017,07,17,00,21,15.60
2017,07,17,00,22,15.60
2017,07,17,00,23,15.60
2017,07,17,00,24,15.60
2017,07,17,00,25,15.60
2017,07,17,00,26,15.60
2017,07,17,00,27,15.50
2017,07,17,00,28,15.40
2017,07,17,00,29,15.40
2017,07,17,00,30,15.40
2017,07,17,00,31,15.30
2017,07,17,00,32,15.30
2017,07,17,00,33,15.30
2017,07,17,00,34,15.20
2017,07,17,00,35,15.20
2017,07,17,00,36,15.10
2017,07,17,00,37,15.10
2017,07,17,00,38,15.10
2017,07,17,00,39,15.10
2017,07,17,00,40,15.10
2017,07,17,00,41,15.00
2017,07,17,00,42,15.00
2017,07,17,00,43,15.00
2017,07,17,00,44,15.00
2017,07,17,00,45,15.00
2017,07,17,00,46,15.00
2017,07,17,00,47,15.00
2017,07,17,00,48,14.90
2017,07,17,00,49,14.90
2017,07,17,00,50,14.90
2017,07,17,00,51,14.80
2017,07,17,00,52,14.80
2017,07,17,00,53,14.80
2017,07,17,00,54,14.70
2017,07,17,00,55,14.70
2017,07,17,00,56,14.60
2017,07,17,00,57,14.50
2017,07,17,00,58,14.40
2017,07,17,00,59,14.30
2017,07,17,01,00,14.20
2017,07,17,01,01,14.20
2017,07,17,01,02,14.10
2017,07,17,01,03,14.10
2017,07,17,01,04,14.00
2017,07,17,01,05,14.00
2017,07,17,01,06,14.10
2017,07,17,01,07,14.10
2017,07,17,01,08,14.20
2017,07,17,01,09,14.20
2017,07,17,01,10,14.30
2017,07,17,01,11,14.30
2017,07,17,01,12,14.30
2017,07,17,01,13,14.40
2017,07,17,01,14,14.40
2017,07,17,01,15,14.50
2017,07,17,01,16,14.50
2017,07,17,01,17,14.60
2017,07,17,01,18,14.60
2017,07,17,01,19,14.70
2017,07,17,01,20,14.70
2017,07,17,01,21,14.80
2017,07,17,01,22,14.80
2017,07,17,01,23,14.80
2017,07,17,01,24,14.80
2017,07,17,01,25,14.80
2017,07,17,01,26,14.80
2017,07,17,01,27,14.80
2017,07,17,01,28,14.80
2017,07,17,01,29,14.70
2017,07,17,01,30,14.70
2017,07,17,01,31,14.70
2017,07,17,01,32,14.70
2017,07,17,01,33,14.70
2017,07,17,01,34,14.70
2017,07,17,01,35,14.70
2017,07,17,01,36,14.70
2017,07,17,01,37,14.70
2017,07,17,01,38,14.80
2017,07,17,01,39,14.80
2017,07,17,01,40,14.80
2017,07,17,01,41,14.80
2017,07,17,01,42,14.90
2017,07,17,01,43,14.90
2017,07,17,01,44,14.90
2017,07,17,01,45,14.80
2017,07,17,01,46,14.80
2017,07,17,01,47,14.80
2017,07,17,01,48,14.80
2017,07,17,01,49,14.80
2017,07,17,01,50,14.80
2017,07,17,01,51,14.80
2017,07,17,01,52,14.80
2017,07,17,01,53,14.80
2017,07,17,01,54,14.80
2017,07,17,01,55,14.70
2017,07,17,01,56,14.70
2017,07,17,01,57,14.70
2017,07,17,01,58,14.70
2017,07,17,01,59,14.70
2017,07,17,02,00,14.60
2017,07,17,02,01,14.60
2017,07,17,02,02,14.60
2017,07,17,02,03,14.50
2017,07,17,02,04,14.50
2017,07,17,02,05,14.50
2017,07,17,02,06,14.40
2017,07,17,02,07,14.40
2017,07,17,02,08,14.40
2017,07,17,02,09,14.40
2017,07,17,02,10,14.30
2017,07,17,02,11,14.30
2017,07,17,02,12,14.30
2017,07,17,02,13,14.30
2017,07,17,02,14,14.20
2017,07,17,02,15,14.20
2017,07,17,02,16,14.20
2017,07,17,02,17,14.20
2017,07,17,02,18,14.20
2017,07,17,02,19,14.10
2017,07,17,02,20,14.10
2017,07,17,02,21,14.10
2017,07,17,02,22,14.10
2017,07,17,02,23,14.00
2017,07,17,02,24,14.00
2017,07,17,02,25,14.00
2017,07,17,02,26,13.90
2017,07,17,02,27,13.90
2017,07,17,02,28,13.90
2017,07,17,02,29,13.90
2017,07,17,02,30,13.90
2017,07,17,02,31,13.90
2017,07,17,02,32,13.90
2017,07,17,02,33,13.90
2017,07,17,02,34,13.80
2017,07,17,02,35,13.80
2017,07,17,02,36,13.80
2017,07,17,02,37,13.80
2017,07,17,02,38,13.70
2017,07,17,02,39,13.70
2017,07,17,02,40,13.60
2017,07,17,02,41,13.60
2017,07,17,02,42,13.50
2017,07,17,02,43,13.40
2017,07,17,02,44,13.40
2017,07,17,02,45,13.30
2017,07,17,02,46,13.30
2017,07,17,02,47,13.20
2017,07,17,02,48,13.20
2017,07,17,02,49,13.10
2017,07,17,02,50,13.10
2017,07,17,02,51,13.10
2017,07,17,02,52,13.00
2017,07,17,02,53,13.00
2017,07,17,02,54,12.90
2017,07,17,02,55,12.90
2017,07,17,02,56,12.80
2017,07,17,02,57,12.80
2017,07,17,02,58,12.70
2017,07,17,02,59,12.70
2017,07,17,03,00,12.70
2017,07,17,03,01,12.60
2017,07,17,03,02,12.50
2017,07,17,03,03,12.50
2017,07,17,03,04,12.40
2017,07,17,03,05,12.40
2017,07,17,03,06,12.30
2017,07,17,03,07,12.30
2017,07,17,03,08,12.30
2017,07,17,03,09,12.20
2017,07,17,03,10,12.20
2017,07,17,03,11,12.10
2017,07,17,03,12,12.10
2017,07,17,03,13,12.10
2017,07,17,03,14,12.00
2017,07,17,03,15,12.00
2017,07,17,03,16,12.00
2017,07,17,03,17,11.90
2017,07,17,03,18,11.90
2017,07,17,03,19,11.90
2017,07,17,03,20,11.90
2017,07,17,03,21,11.80
2017,07,17,03,22,11.80
2017,07,17,03,23,11.80
2017,07,17,03,24,11.80
2017,07,17,03,25,11.80
2017,07,17,03,26,11.80
2017,07,17,03,27,11.80
2017,07,17,03,28,11.80
2017,07,17,03,29,11.80
2017,07,17,03,30,11.80
2017,07,17,03,31,11.80
2017,07,17,03,32,11.80
2017,07,17,03,33,11.90
2017,07,17,03,34,11.90
2017,07,17,03,35,11.90
2017,07,17,03,36,11.90
2017,07,17,03,37,11.90
2017,07,17,03,38,11.90
2017,07,17,03,39,11.90
2017,07,17,03,40,11.90
2017,07,17,03,41,11.90
2017,07,17,03,42,11.90
2017,07,17,03,43,11.90
2017,07,17,03,44,11.90
2017,07,17,03,45,11.90
2017,07,17,03,46,11.90
2017,07,17,03,47,11.90
2017,07,17,03,48,11.90
2017,07,17,03,49,11.90
2017,07,17,03,50,11.90
2017,07,17,03,51,11.90
2017,07,17,03,52,11.90
2017,07,17,03,53,11.90
2017,07,17,03,54,11.90
2017,07,17,03,55,11.80
2017,07,17,03,56,11.70
2017,07,17,03,57,11.70
2017,07,17,03,58,11.60
2017,07,17,03,59,11.50
2017,07,17,04,00,11.40
2017,07,17,04,01,11.30
2017,07,17,04,02,11.20
2017,07,17,04,03,11.10
2017,07,17,04,04,11.00
2017,07,17,04,05,10.90
2017,07,17,04,06,10.80
2017,07,17,04,07,10.70
2017,07,17,04,08,10.70
2017,07,17,04,09,10.60
2017,07,17,04,10,10.50
2017,07,17,04,11,10.50
2017,07,17,04,12,10.50
2017,07,17,04,13,10.40
2017,07,17,04,14,10.40
2017,07,17,04,15,10.40
2017,07,17,04,16,10.30
2017,07,17,04,17,10.30
2017,07,17,04,18,10.30
2017,07,17,04,19,10.30
2017,07,17,04,20,10.20
2017,07,17,04,21,10.20
2017,07,17,04,22,10.20
2017,07,17,04,23,10.20
2017,07,17,04,24,10.20
2017,07,17,04,25,10.20
2017,07,17,04,26,10.20
2017,07,17,04,27,10.20
2017,07,17,04,28,10.10
2017,07,17,04,29,10.10
2017,07,17,04,30,10.00
2017,07,17,04,31,10.00
2017,07,17,04,32,9.90
2017,07,17,04,33,9.90
2017,07,17,04,34,9.80
2017,07,17,04,35,9.70
2017,07,17,04,36,9.70
2017,07,17,04,37,9.60
2017,07,17,04,38,9.60
2017,07,17,04,39,9.60
2017,07,17,04,40,9.50
2017,07,17,04,41,9.50
2017,07,17,04,42,9.40
2017,07,17,04,43,9.30
2017,07,17,04,44,9.30
2017,07,17,04,45,9.20
2017,07,17,04,46,9.10
2017,07,17,04,47,9.00
2017,07,17,04,48,9.00
2017,07,17,04,49,8.90
2017,07,17,04,50,8.90
2017,07,17,04,51,8.80
2017,07,17,04,52,8.80
2017,07,17,04,53,8.80
2017,07,17,04,54,8.70
2017,07,17,04,55,8.70
2017,07,17,04,56,8.70
2017,07,17,04,57,8.70
2017,07,17,04,58,8.60
2017,07,17,04,59,8.60
2017,07,17,05,00,8.60
2017,07,17,05,01,8.70
2017,07,17,05,02,8.70
2017,07,17,05,03,8.70
2017,07,17,05,04,8.70
2017,07,17,05,05,8.70
2017,07,17,05,06,8.70
2017,07,17,05,07,8.70
2017,07,17,05,08,8.70
2017,07,17,05,09,8.70
2017,07,17,05,10,8.80
2017,07,17,05,11,8.80
2017,07,17,05,12,8.80
2017,07,17,05,13,8.80
2017,07,17,05,14,8.70
2017,07,17,05,15,8.70
2017,07,17,05,16,8.70
2017,07,17,05,17,8.60
2017,07,17,05,18,8.60
2017,07,17,05,19,8.60
2017,07,17,05,20,8.50
2017,07,17,05,21,8.50
2017,07,17,05,22,8.40
2017,07,17,05,23,8.30
2017,07,17,05,24,8.30
2017,07,17,05,25,8.20
2017,07,17,05,26,8.20
2017,07,17,05,27,8.10
2017,07,17,05,28,8.10
2017,07,17,05,29,8.10
2017,07,17,05,30,8.10
2017,07,17,05,31,8.00
2017,07,17,05,32,8.00
2017,07,17,05,33,8.00
2017,07,17,05,34,8.00
2017,07,17,05,35,8.00
2017,07,17,05,36,8.00
2017,07,17,05,37,8.10
2017,07,17,05,38,8.10
2017,07,17,05,39,8.10
2017,07,17,05,40,8.10
2017,07,17,05,41,8.10
2017,07,17,05,42,8.10
2017,07,17,05,43,8.10
2017,07,17,05,44,8.10
2017,07,17,05,45,8.10
2017,07,17,05,46,8.20
2017,07,17,05,47,8.20
2017,07,17,05,48,8.20
2017,07,17,05,49,8.20
2017,07,17,05,50,8.20
2017,07,17,05,51,8.20
2017,07,17,05,52,8.20
2017,07,17,05,53,8.20
2017,07,17,05,54,8.20
2017,07,17,05,55,8.20
2017,07,17,05,56,8.20
2017,07,17,05,57,8.30
2017,07,17,05,58,8.30
2017,07,17,05,59,8.30
2017,07,17,06,00,8.30
2017,07,17,06,01,8.30
2017,07,17,06,02,8.20
2017,07,17,06,03,8.20
2017,07,17,06,04,8.10
2017,07,17,06,05,8.10
2017,07,17,06,06,8.00
2017,07,17,06,07,8.00
2017,07,17,06,08,7.90
2017,07,17,06,09,7.90
2017,07,17,06,10,7.90
2017,07,17,06,11,7.90
2017,07,17,06,12,7.90
2017,07,17,06,13,7.90
2017,07,17,06,14,7.90
2017,07,17,06,15,7.90
2017,07,17,06,16,7.90
2017,07,17,06,17,7.90
2017,07,17,06,18,7.90
2017,07,17,06,19,7.90
2017,07,17,06,20,7.90
2017,07,17,06,21,7.90
2017,07,17,06,22,7.90
2017,07,17,06,23,7.90
2017,07,17,06,24,7.90
2017,07,17,06,25,7.90
2017,07,17,06,26,7.90
2017,07,17,06,27,8.00
2017,07,17,06,28,8.00
2017,07,17,06,29,8.00
2017,07,17,06,30,8.10
2017,07,17,06,31,8.10
2017,07,17,06,32,8.10
2017,07,17,06,33,8.20
2017,07,17,06,34,8.20
2017,07,17,06,35,8.20
2017,07,17,06,36,8.20
2017,07,17,06,37,8.20
2017,07,17,06,38,8.20
2017,07,17,06,39,8.30
2017,07,17,06,40,8.30
2017,07,17,06,41,8.30
2017,07,17,06,42,8.30
2017,07,17,06,43,8.30
2017,07,17,06,44,8.40
2017,07,17,06,45,8.40
2017,07,17,06,46,8.50
2017,07,17,06,47,8.50
2017,07,17,06,48,8.60
2017,07,17,06,49,8.60
2017,07,17,06,50,8.70
2017,07,17,06,51,8.70
2017,07,17,06,52,8.80
2017,07,17,06,53,8.90
2017,07,17,06,54,9.00
2017,07,17,06,55,9.10
2017,07,17,06,56,9.10
2017,07,17,06,57,9.20
2017,07,17,06,58,9.30
2017,07,17,06,59,9.40
2017,07,17,07,00,9.40
2017,07,17,07,01,9.50
2017,07,17,07,02,9.60
2017,07,17,07,03,9.70
2017,07,17,07,04,9.80
2017,07,17,07,05,9.90
2017,07,17,07,06,10.00
2017,07,17,07,07,10.10
2017,07,17,07,08,10.20
2017,07,17,07,09,10.30
2017,07,17,07,10,10.30
2017,07,17,07,11,10.40
2017,07,17,07,12,10.50
2017,07,17,07,13,10.60
2017,07,17,07,14,10.70
2017,07,17,07,15,10.80
2017,07,17,07,16,10.90
2017,07,17,07,17,11.00
2017,07,17,07,18,11.00
2017,07,17,07,19,11.10
2017,07,17,07,20,11.30
2017,07,17,07,21,11.40
2017,07,17,07,22,11.50
2017,07,17,07,23,11.50
2017,07,17,07,24,11.60
2017,07,17,07,25,11.60
2017,07,17,07,26,11.70
2017,07,17,07,27,11.70
2017,07,17,07,28,11.70
2017,07,17,07,29,11.80
2017,07,17,07,30,11.80
2017,07,17,07,31,11.80
2017,07,17,07,32,11.80
2017,07,17,07,33,11.90
2017,07,17,07,34,11.90
2017,07,17,07,35,11.90
2017,07,17,07,36,12.00
2017,07,17,07,37,12.00
2017,07,17,07,38,12.10
2017,07,17,07,39,12.10
2017,07,17,07,40,12.20
2017,07,17,07,41,12.30
2017,07,17,07,42,12.30
2017,07,17,07,43,12.40
2017,07,17,07,44,12.50
2017,07,17,07,45,12.50
2017,07,17,07,46,12.60
2017,07,17,07,47,12.60
2017,07,17,07,48,12.70
2017,07,17,07,49,12.70
2017,07,17,07,50,12.80
2017,07,17,07,51,12.90
2017,07,17,07,52,13.00
2017,07,17,07,53,13.10
2017,07,17,07,54,13.20
2017,07,17,07,55,13.20
2017,07,17,07,56,13.30
2017,07,17,07,57,13.40
2017,07,17,07,58,13.50
2017,07,17,07,59,13.50
2017,07,17,08,00,13.60
2017,07,17,08,01,13.60
2017,07,17,08,02,13.70
2017,07,17,08,03,13.70
2017,07,17,08,04,13.80
2017,07,17,08,05,13.80
2017,07,17,08,06,13.70
2017,07,17,08,07,13.70
2017,07,17,08,08,13.70
2017,07,17,08,09,13.70
2017,07,17,08,10,13.70
2017,07,17,08,11,13.70
2017,07,17,08,12,13.80
2017,07,17,08,13,13.80
2017,07,17,08,14,13.80
2017,07,17,08,15,13.80
2017,07,17,08,16,13.90
2017,07,17,08,17,13.90
2017,07,17,08,18,13.90
2017,07,17,08,19,13.90
2017,07,17,08,20,14.00
2017,07,17,08,21,14.10
2017,07,17,08,22,14.10
2017,07,17,08,23,14.10
2017,07,17,08,24,14.20
2017,07,17,08,25,14.20
2017,07,17,08,26,14.20
2017,07,17,08,27,14.20
2017,07,17,08,28,14.30
2017,07,17,08,29,14.30
2017,07,17,08,30,14.30
2017,07,17,08,31,14.40
2017,07,17,08,32,14.40
2017,07,17,08,33,14.40
2017,07,17,08,34,14.50
2017,07,17,08,35,14.50
2017,07,17,08,36,14.60
2017,07,17,08,37,14.60
2017,07,17,08,38,14.60
2017,07,17,08,39,14.70
2017,07,17,08,40,14.70
2017,07,17,08,41,14.80
2017,07,17,08,42,14.80
2017,07,17,08,43,14.80
2017,07,17,08,44,14.90
2017,07,17,08,45,14.90
2017,07,17,08,46,14.90
2017,07,17,08,47,14.90
2017,07,17,08,48,15.00
2017,07,17,08,49,15.10
2017,07,17,08,50,15.10
2017,07,17,08,51,15.10
2017,07,17,08,52,15.20
2017,07,17,08,53,15.20
2017,07,17,08,54,15.20
2017,07,17,08,55,15.20
2017,07,17,08,56,15.30
2017,07,17,08,57,15.30
2017,07,17,08,58,15.30
2017,07,17,08,59,15.30
2017,07,17,09,00,15.30
2017,07,17,09,01,15.30
2017,07,17,09,02,15.40
2017,07,17,09,03,15.40
2017,07,17,09,04,15.40
2017,07,17,09,05,15.40
2017,07,17,09,06,15.50
2017,07,17,09,07,15.60
2017,07,17,09,08,15.60
2017,07,17,09,09,15.60
2017,07,17,09,10,15.60
2017,07,17,09,11,15.60
2017,07,17,09,12,15.60
2017,07,17,09,13,15.70
2017,07,17,09,14,15.70
2017,07,17,09,15,15.70
2017,07,17,09,16,15.80
2017,07,17,09,17,15.80
2017,07,17,09,18,15.90
2017,07,17,09,19,15.90
2017,07,17,09,20,15.90
2017,07,17,09,21,15.90
2017,07,17,09,22,16.00
2017,07,17,09,23,16.00
2017,07,17,09,24,16.10
2017,07,17,09,25,16.10
2017,07,17,09,26,16.10
2017,07,17,09,27,16.20
2017,07,17,09,28,16.20
2017,07,17,09,29,16.20
2017,07,17,09,30,16.20
2017,07,17,09,31,16.30
2017,07,17,09,32,16.40
2017,07,17,09,33,16.40
2017,07,17,09,34,16.40
2017,07,17,09,35,16.40
2017,07,17,09,36,16.40
2017,07,17,09,37,16.40
2017,07,17,09,38,16.40
2017,07,17,09,39,16.40
2017,07,17,09,40,16.40
2017,07,17,09,41,16.50
2017,07,17,09,42,16.50
2017,07,17,09,43,16.60
2017,07,17,09,44,16.60
2017,07,17,09,45,16.70
2017,07,17,09,46,16.70
2017,07,17,09,47,16.70
2017,07,17,09,48,16.80
2017,07,17,09,49,16.80
2017,07,17,09,50,16.80
2017,07,17,09,51,16.80
2017,07,17,09,52,16.80
2017,07,17,09,53,16.90
2017,07,17,09,54,16.90
2017,07,17,09,55,16.90
2017,07,17,09,56,16.90
2017,07,17,09,57,17.00
2017,07,17,09,58,17.00
2017,07,17,09,59,17.10
2017,07,17,10,00,17.10
2017,07,17,10,01,17.20
2017,07,17,10,02,17.20
2017,07,17,10,03,17.20
2017,07,17,10,04,17.20
2017,07,17,10,05,17.30
2017,07,17,10,06,17.30
2017,07,17,10,07,17.30
2017,07,17,10,08,17.30
2017,07,17,10,09,17.20
2017,07,17,10,10,17.20
2017,07,17,10,11,17.20
2017,07,17,10,12,17.20
2017,07,17,10,13,17.20
2017,07,17,10,14,17.20
2017,07,17,10,15,17.20
2017,07,17,10,16,17.20
2017,07,17,10,17,17.20
2017,07,17,10,18,17.20
2017,07,17,10,19,17.30
2017,07,17,10,20,17.30
2017,07,17,10,21,17.30
2017,07,17,10,22,17.30
2017,07,17,10,23,17.40
2017,07,17,10,24,17.40
2017,07,17,10,25,17.40
2017,07,17,10,26,17.50
2017,07,17,10,27,17.60
2017,07,17,10,28,17.60
2017,07,17,10,29,17.60
2017,07,17,10,30,17.70
2017,07,17,10,31,17.70
2017,07,17,10,32,17.80
2017,07,17,10,33,17.80
2017,07,17,10,34,17.90
2017,07,17,10,35,18.00
2017,07,17,10,36,18.10
2017,07,17,10,37,18.20
2017,07,17,10,38,18.20
2017,07,17,10,39,18.20
2017,07,17,10,40,18.20
2017,07,17,10,41,18.30
2017,07,17,10,42,18.30
2017,07,17,10,43,18.30
2017,07,17,10,44,18.40
2017,07,17,10,45,18.50
2017,07,17,10,46,18.50
2017,07,17,10,47,18.50
2017,07,17,10,48,18.50
2017,07,17,10,49,18.50
2017,07,17,10,50,18.50
2017,07,17,10,51,18.50
2017,07,17,10,52,18.50
2017,07,17,10,53,18.50
2017,07,17,10,54,18.40
2017,07,17,10,55,18.40
2017,07,17,10,56,18.40
2017,07,17,10,57,18.40
2017,07,17,10,58,18.40
2017,07,17,10,59,18.40
2017,07,17,11,00,18.40
2017,07,17,11,01,18.40
2017,07,17,11,02,18.40
2017,07,17,11,03,18.50
2017,07,17,11,04,18.50
2017,07,17,11,05,18.60
2017,07,17,11,06,18.50
2017,07,17,11,07,18.60
2017,07,17,11,08,18.60
2017,07,17,11,09,18.60
2017,07,17,11,10,18.60
2017,07,17,11,11,18.60
2017,07,17,11,12,18.60
2017,07,17,11,13,18.60
2017,07,17,11,14,18.60
2017,07,17,11,15,18.60
2017,07,17,11,16,18.60
2017,07,17,11,17,18.70
2017,07,17,11,18,18.70
2017,07,17,11,19,18.60
2017,07,17,11,20,18.60
2017,07,17,11,21,18.60
2017,07,17,11,22,18.70
2017,07,17,11,23,18.70
2017,07,17,11,24,18.80
2017,07,17,11,25,18.80
2017,07,17,11,26,18.80
2017,07,17,11,27,18.90
2017,07,17,11,28,18.80
2017,07,17,11,29,18.80
2017,07,17,11,30,18.90
2017,07,17,11,31,18.90
2017,07,17,11,32,18.90
2017,07,17,11,33,19.00
2017,07,17,11,34,19.00
2017,07,17,11,35,19.10
2017,07,17,11,36,19.10
2017,07,17,11,37,19.10
2017,07,17,11,38,19.20
2017,07,17,11,39,19.20
2017,07,17,11,40,19.20
2017,07,17,11,41,19.30
2017,07,17,11,42,19.30
2017,07,17,11,43,19.40
2017,07,17,11,44,19.40
2017,07,17,11,45,19.50
2017,07,17,11,46,19.50
2017,07,17,11,47,19.40
2017,07,17,11,48,19.40
2017,07,17,11,49,19.40
2017,07,17,11,50,19.40
2017,07,17,11,51,19.40
2017,07,17,11,52,19.40
2017,07,17,11,53,19.40
2017,07,17,11,54,19.30
2017,07,17,11,55,19.30
2017,07,17,11,56,19.40
2017,07,17,11,57,19.40
2017,07,17,11,58,19.50
2017,07,17,11,59,19.50
2017,07,17,12,00,19.60
2017,07,17,12,01,19.60
2017,07,17,12,02,19.60
2017,07,17,12,03,19.60
2017,07,17,12,04,19.60
2017,07,17,12,05,19.70
2017,07,17,12,06,19.70
2017,07,17,12,07,19.80
2017,07,17,12,08,19.80
2017,07,17,12,09,19.90
2017,07,17,12,10,20.00
2017,07,17,12,11,20.00
2017,07,17,12,12,20.00
2017,07,17,12,13,20.00
2017,07,17,12,14,20.00
2017,07,17,12,15,20.10
2017,07,17,12,16,20.10
2017,07,17,12,17,20.10
2017,07,17,12,18,20.10
2017,07,17,12,19,20.20
2017,07,17,12,20,20.30
2017,07,17,12,21,20.30
2017,07,17,12,22,20.30
2017,07,17,12,23,20.20
2017,07,17,12,24,20.10
2017,07,17,12,25,20.00
2017,07,17,12,26,19.90
2017,07,17,12,27,19.90
2017,07,17,12,28,20.00
2017,07,17,12,29,20.00
2017,07,17,12,30,20.00
2017,07,17,12,31,20.00
2017,07,17,12,32,20.00
2017,07,17,12,33,19.90
2017,07,17,12,34,19.90
2017,07,17,12,35,20.00
2017,07,17,12,36,20.10
2017,07,17,12,37,20.20
2017,07,17,12,38,20.30
2017,07,17,12,39,20.40
2017,07,17,12,40,20.40
2017,07,17,12,41,20.50
2017,07,17,12,42,20.60
2017,07,17,12,43,20.60
2017,07,17,12,44,20.70
2017,07,17,12,45,20.70
2017,07,17,12,46,20.70
2017,07,17,12,47,20.70
2017,07,17,12,48,20.80
2017,07,17,12,49,20.80
2017,07,17,12,50,20.90
2017,07,17,12,51,20.90
2017,07,17,12,52,20.80
2017,07,17,12,53,20.80
2017,07,17,12,54,20.90
2017,07,17,12,55,21.00
2017,07,17,12,56,21.00
2017,07,17,12,57,21.00
2017,07,17,12,58,21.10
2017,07,17,12,59,21.10
2017,07,17,13,00,21.10
2017,07,17,13,01,21.00
2017,07,17,13,02,21.00
2017,07,17,13,03,20.90
2017,07,17,13,04,20.90
2017,07,17,13,05,20.80
2017,07,17,13,06,20.70
2017,07,17,13,07,20.50
2017,07,17,13,08,20.40
2017,07,17,13,09,20.40
2017,07,17,13,10,20.40
2017,07,17,13,11,20.40
2017,07,17,13,12,20.40
2017,07,17,13,13,20.40
2017,07,17,13,14,20.40
2017,07,17,13,15,20.40
2017,07,17,13,16,20.50
2017,07,17,13,17,20.50
2017,07,17,13,18,20.60
2017,07,17,13,19,20.70
2017,07,17,13,20,20.90
2017,07,17,13,21,21.00
2017,07,17,13,22,21.00
2017,07,17,13,23,21.10
2017,07,17,13,24,21.10
2017,07,17,13,25,21.20
2017,07,17,13,26,21.20
2017,07,17,13,27,21.30
2017,07,17,13,28,21.40
2017,07,17,13,29,21.50
2017,07,17,13,30,21.60
2017,07,17,13,31,21.70
2017,07,17,13,32,21.80
2017,07,17,13,33,21.80
2017,07,17,13,34,21.60
2017,07,17,13,35,21.60
2017,07,17,13,36,21.50
2017,07,17,13,37,21.50
2017,07,17,13,38,21.50
2017,07,17,13,39,21.40
2017,07,17,13,40,21.40
2017,07,17,13,41,21.30
2017,07,17,13,42,21.30
2017,07,17,13,43,21.30
2017,07,17,13,44,21.30
2017,07,17,13,45,21.30
2017,07,17,13,46,21.30
2017,07,17,13,47,21.40
2017,07,17,13,48,21.40
2017,07,17,13,49,21.50
2017,07,17,13,50,21.50
2017,07,17,13,51,21.50
2017,07,17,13,52,21.60
2017,07,17,13,53,21.60
2017,07,17,13,54,21.60
2017,07,17,13,55,21.50
2017,07,17,13,56,21.40
2017,07,17,13,57,21.40
2017,07,17,13,58,21.40
2017,07,17,13,59,21.40
2017,07,17,14,00,21.50
2017,07,17,14,01,21.50
2017,07,17,14,02,21.50
2017,07,17,14,03,21.50
2017,07,17,14,04,21.50
2017,07,17,14,05,21.60
2017,07,17,14,06,21.60
2017,07,17,14,07,21.70
2017,07,17,14,08,21.70
2017,07,17,14,09,21.70
2017,07,17,14,10,21.70
2017,07,17,14,11,21.70
2017,07,17,14,12,21.70
2017,07,17,14,13,21.80
2017,07,17,14,14,21.80
2017,07,17,14,15,21.80
2017,07,17,14,16,21.70
2017,07,17,14,17,21.70
2017,07,17,14,18,21.60
2017,07,17,14,19,21.60
2017,07,17,14,20,21.70
2017,07,17,14,21,21.70
2017,07,17,14,22,21.80
2017,07,17,14,23,21.90
2017,07,17,14,24,22.00
2017,07,17,14,25,22.10
2017,07,17,14,26,22.20
2017,07,17,14,27,22.30
2017,07,17,14,28,22.40
2017,07,17,14,29,22.40
2017,07,17,14,30,22.40
2017,07,17,14,31,22.40
2017,07,17,14,32,22.30
2017,07,17,14,33,22.30
2017,07,17,14,34,22.30
2017,07,17,14,35,22.30
2017,07,17,14,36,22.30
2017,07,17,14,37,22.40
2017,07,17,14,38,22.30
2017,07,17,14,39,22.30
2017,07,17,14,40,22.30
2017,07,17,14,41,22.30
2017,07,17,14,42,22.30
2017,07,17,14,43,22.30
2017,07,17,14,44,22.40
2017,07,17,14,45,22.40
2017,07,17,14,46,22.40
2017,07,17,14,47,22.40
2017,07,17,14,48,22.50
2017,07,17,14,49,22.50
2017,07,17,14,50,22.60
2017,07,17,14,51,22.70
2017,07,17,14,52,22.70
2017,07,17,14,53,22.80
2017,07,17,14,54,22.80
2017,07,17,14,55,22.80
2017,07,17,14,56,22.80
2017,07,17,14,57,22.80
2017,07,17,14,58,22.80
2017,07,17,14,59,22.80
2017,07,17,15,00,22.80
2017,07,17,15,01,22.90
2017,07,17,15,02,23.00
2017,07,17,15,03,23.20
2017,07,17,15,04,23.20
2017,07,17,15,05,23.30
2017,07,17,15,06,23.30
2017,07,17,15,07,23.30
2017,07,17,15,08,23.30
2017,07,17,15,09,23.20
2017,07,17,15,10,23.10
2017,07,17,15,11,22.90
2017,07,17,15,12,22.80
2017,07,17,15,13,22.80
2017,07,17,15,14,22.90
2017,07,17,15,15,23.00
2017,07,17,15,16,23.00
2017,07,17,15,17,23.10
2017,07,17,15,18,23.20
2017,07,17,15,19,23.20
2017,07,17,15,20,23.30
2017,07,17,15,21,23.40
2017,07,17,15,22,23.40
2017,07,17,15,23,23.50
2017,07,17,15,24,23.60
2017,07,17,15,25,23.60
2017,07,17,15,26,23.60
2017,07,17,15,27,23.50
2017,07,17,15,28,23.50
2017,07,17,15,29,23.50
2017,07,17,15,30,23.40
2017,07,17,15,31,23.40
2017,07,17,15,32,23.40
2017,07,17,15,33,23.40
2017,07,17,15,34,23.50
2017,07,17,15,35,23.60
2017,07,17,15,36,23.70
2017,07,17,15,37,23.70
2017,07,17,15,38,23.80
2017,07,17,15,39,23.80
2017,07,17,15,40,23.80
2017,07,17,15,41,23.80
2017,07,17,15,42,23.80
2017,07,17,15,43,23.90
2017,07,17,15,44,23.90
2017,07,17,15,45,23.90
2017,07,17,15,46,23.90
2017,07,17,15,47,23.80
2017,07,17,15,48,23.80
2017,07,17,15,49,23.80
2017,07,17,15,50,23.80
2017,07,17,15,51,23.80
2017,07,17,15,52,23.80
2017,07,17,15,53,23.90
2017,07,17,15,54,24.00
2017,07,17,15,55,24.00
2017,07,17,15,56,24.10
2017,07,17,15,57,24.20
2017,07,17,15,58,24.30
2017,07,17,15,59,24.40
2017,07,17,16,00,24.40
2017,07,17,16,01,24.40
2017,07,17,16,02,24.40
2017,07,17,16,03,24.40
2017,07,17,16,04,24.40
2017,07,17,16,05,24.40
2017,07,17,16,06,24.40
2017,07,17,16,07,24.40
2017,07,17,16,08,24.50
2017,07,17,16,09,24.50
2017,07,17,16,10,24.60
2017,07,17,16,11,24.60
2017,07,17,16,12,24.60
2017,07,17,16,13,24.60
2017,07,17,16,14,24.60
2017,07,17,16,15,24.50
2017,07,17,16,16,24.50
2017,07,17,16,17,24.40
2017,07,17,16,18,24.40
2017,07,17,16,19,24.40
2017,07,17,16,20,24.40
2017,07,17,16,21,24.40
2017,07,17,16,22,24.40
2017,07,17,16,23,24.40
2017,07,17,16,24,24.50
2017,07,17,16,25,24.60
2017,07,17,16,26,24.50
2017,07,17,16,27,24.50
2017,07,17,16,28,24.50
2017,07,17,16,29,24.40
2017,07,17,16,30,24.40
2017,07,17,16,31,24.30
2017,07,17,16,32,24.30
2017,07,17,16,33,24.30
2017,07,17,16,34,24.30
2017,07,17,16,35,24.20
2017,07,17,16,36,24.10
2017,07,17,16,37,24.00
2017,07,17,16,38,23.90
2017,07,17,16,39,23.90
2017,07,17,16,40,23.90
2017,07,17,16,41,23.90
2017,07,17,16,42,23.90
2017,07,17,16,43,23.90
2017,07,17,16,44,23.90
2017,07,17,16,45,23.80
2017,07,17,16,46,23.90
2017,07,17,16,47,23.90
2017,07,17,16,48,23.90
2017,07,17,16,49,23.90
2017,07,17,16,50,23.80
2017,07,17,16,51,23.80
2017,07,17,16,52,23.80
2017,07,17,16,53,23.80
2017,07,17,16,54,23.80
2017,07,17,16,55,23.80
2017,07,17,16,56,23.90
2017,07,17,16,57,23.90
2017,07,17,16,58,24.00
2017,07,17,16,59,24.10
2017,07,17,17,00,24.10
2017,07,17,17,01,24.20
2017,07,17,17,02,24.20
2017,07,17,17,03,24.30
2017,07,17,17,04,24.30
2017,07,17,17,05,24.30
2017,07,17,17,06,24.30
2017,07,17,17,07,24.30
2017,07,17,17,08,24.30
2017,07,17,17,09,24.30
2017,07,17,17,10,24.30
2017,07,17,17,11,24.30
2017,07,17,17,12,24.30
2017,07,17,17,13,24.30
2017,07,17,17,14,24.20
2017,07,17,17,15,24.20
2017,07,17,17,16,24.30
2017,07,17,17,17,24.30
2017,07,17,17,18,24.40
2017,07,17,17,19,24.40
2017,07,17,17,20,24.40
2017,07,17,17,21,24.40
2017,07,17,17,22,24.40
2017,07,17,17,23,24.40
2017,07,17,17,24,24.50
2017,07,17,17,25,24.50
2017,07,17,17,26,24.50